Weather History for KUES - November, 2012

Change the Weather History Date:

Monday, November 19, 2012

  Actual Average Record
Temperature  
Mean Temperature 43 °F -  
Max Temperature 53 °F 45 °F 71 °F (1953)
Min Temperature 33 °F 31 °F 14 °F (1951)
Degree Days  
Heating Degree Days 22    
Moisture  
Dew Point 37 °F    
Average Humidity 79    
Maximum Humidity 93    
Minimum Humidity 47    
Precipitation  
Precipitation 0.00 in - - ()
Sea Level Pressure  
Sea Level Pressure 30.20 in    
Wind  
Wind Speed 4 mph (SSE)    
Max Wind Speed 12 mph    
Max Gust Speed -    
Visibility 9 miles    
Events Rain    
Averages and records for this station are not official NWS values.
T = Trace of Precipitation, MM = Missing Value Source: NWS Daily Summary

Daily Weather History Graph

Daily Weather History Graph

Search for Another Location

Airport or City:

Trip Planner

Search our weather history database for the weather conditions in past years. The results will help you decide how hot, cold, wet, or windy it might be!

Date:

Astronomy

Nov. 19, 2012 Rise Set
Actual Time 6:51 AM CST 4:25 PM CST
Civil Twilight 6:20 AM CST 4:56 PM CST
Nautical Twilight 5:45 AM CST 5:31 PM CST
Astronomical Twilight 5:11 AM CST 6:04 PM CST
Moon 11:50 AM CST (11/19) 10:56 PM CST (11/19)
Length of Visible Light 10h 36m
Length of Day
9h 34m
Waxing Crescent, 41% of the Moon is Illuminated
Nov 19
Waxing Crescent
Nov 20
First Quarter
Nov 28
Full
Dec 6
Last Quarter
Dec 13
New

Hourly Weather History & Observations

Time (CST) Temp. Windchill Dew Point Humidity Pressure Visibility Wind Dir Wind Speed Gust Speed Precip Events Conditions
12:15 AM 42.8 °F 38.6 °F 32.0 °F 66% 30.30 in 10.0 mi South 6.9 mph - N/A   Clear
12:35 AM 42.8 °F 39.3 °F 32.0 °F 66% 30.30 in 10.0 mi South 5.8 mph - N/A   Clear
12:55 AM 42.8 °F 40.1 °F 32.0 °F 66% 30.30 in 10.0 mi South 4.6 mph - N/A   Clear
1:15 AM 42.8 °F 40.1 °F 32.0 °F 66% 30.30 in 10.0 mi South 4.6 mph - N/A   Clear
1:35 AM 41.0 °F 38.0 °F 32.0 °F 70% 30.30 in 10.0 mi South 4.6 mph - N/A   Clear
1:55 AM 41.0 °F 39.0 °F 32.0 °F 70% 30.30 in 10.0 mi South 3.5 mph - N/A   Clear
2:35 AM 37.4 °F - 32.0 °F 81% 30.28 in 10.0 mi Calm Calm - N/A   Clear
2:55 AM 33.8 °F - 32.0 °F 93% 30.28 in 10.0 mi Calm Calm - N/A   Clear
3:15 AM 35.6 °F - 32.0 °F 87% 30.27 in 10.0 mi Calm Calm - N/A   Clear
3:35 AM 35.6 °F - 32.0 °F 87% 30.27 in 10.0 mi Calm Calm - N/A   Clear
3:55 AM 35.6 °F - 32.0 °F 87% 30.27 in 10.0 mi Calm Calm - N/A   Clear
4:15 AM 33.8 °F - 32.0 °F 93% 30.27 in 10.0 mi Calm Calm - N/A   Clear
4:35 AM 35.6 °F - 32.0 °F 87% 30.27 in 10.0 mi Calm Calm - N/A   Clear
5:45 AM 35.6 °F - 30.2 °F 81% 30.27 in 10.0 mi Calm Calm - N/A   Clear
6:45 AM 39.2 °F 33.0 °F 33.8 °F 81% 30.25 in 10.0 mi SSE 9.2 mph - N/A   Mostly Cloudy
7:45 AM 39.2 °F 35.0 °F 33.8 °F 81% 30.25 in 10.0 mi SSE 5.8 mph - N/A   Overcast
8:45 AM 39.2 °F 34.2 °F 33.8 °F 81% 30.25 in 10.0 mi South 6.9 mph - N/A   Overcast
9:45 AM 42.8 °F 39.3 °F 33.8 °F 70% 30.24 in 10.0 mi SSE 5.8 mph - N/A   Overcast
10:45 AM 44.6 °F 39.7 °F 35.6 °F 71% 30.23 in 10.0 mi SSE 9.2 mph - N/A   Overcast
11:45 AM 48.2 °F - 35.6 °F 62% 30.19 in 10.0 mi SSE 6.9 mph - N/A   Overcast
12:45 PM 53.6 °F - 33.8 °F 47% 30.18 in 10.0 mi South 11.5 mph - N/A   Scattered Clouds
1:45 PM 51.8 °F - 35.6 °F 54% 30.16 in 10.0 mi SSE 6.9 mph - N/A   Overcast
2:45 PM 51.8 °F - 35.6 °F 54% 30.14 in 10.0 mi SSE 6.9 mph - N/A   Overcast
3:45 PM 51.8 °F - 37.4 °F 58% 30.14 in 10.0 mi SSE 5.8 mph - N/A   Overcast
4:45 PM 51.8 °F - 37.4 °F 58% 30.13 in 10.0 mi SSE 3.5 mph - N/A   Overcast
5:45 PM 48.2 °F - 39.2 °F 71% 30.12 in 10.0 mi Calm Calm - N/A   Overcast
6:45 PM 48.2 °F - 41.0 °F 76% 30.13 in 10.0 mi ESE 4.6 mph - N/A Rain Light Rain
7:45 PM 46.4 °F 45.2 °F 41.0 °F 81% 30.13 in 10.0 mi NNE 3.5 mph - N/A Rain Light Rain
8:15 PM 44.6 °F - 42.8 °F 93% 30.13 in 5.0 mi Calm Calm - N/A Rain Light Rain
8:35 PM 44.6 °F - 42.8 °F 93% 30.13 in 5.0 mi Calm Calm - N/A   Drizzle
8:55 PM 44.6 °F - 42.8 °F 93% 30.13 in 7.0 mi Calm Calm - N/A   Overcast
9:15 PM 44.6 °F - 42.8 °F 93% 30.13 in 5.0 mi Calm Calm - N/A   Overcast
9:35 PM 44.6 °F 42.2 °F 42.8 °F 93% 30.12 in 5.0 mi East 4.6 mph - N/A   Overcast
9:55 PM 44.6 °F - 42.8 °F 93% 30.11 in 7.0 mi Calm Calm - N/A   Overcast
10:15 PM 44.6 °F - 42.8 °F 93% 30.12 in 5.0 mi Calm Calm - N/A Rain Light Rain
10:35 PM 44.6 °F - 42.8 °F 93% 30.11 in 5.0 mi Calm Calm - N/A   Drizzle
10:55 PM 44.6 °F - 42.8 °F 93% 30.11 in 7.0 mi Calm Calm - N/A   Overcast
11:15 PM 44.6 °F 41.4 °F 42.8 °F 93% 30.10 in 4.0 mi South 5.8 mph - N/A   Overcast
11:35 PM 44.6 °F 42.2 °F 41.0 °F 87% 30.10 in 10.0 mi SSE 4.6 mph - N/A   Overcast
11:55 PM 44.6 °F - 41.0 °F 87% 30.10 in 10.0 mi Calm Calm - N/A   Overcast